Wind_Speed
13 12 11 11 10 9 8 8 8 7 7 6 6 6 7 7 7 7 7 7 6 6 5 5 4 4 3 3 4 4 3 4 4 3 3 3 3 4 4 4 4 4
14 13 12 11 10 9 9 9 8 8 7 7 6 6 6 7 7 7 7 7 7 6 6 5 5 4 4 4 4 5 4 4 5 4 3 3 3 4 4 4 5 5
15 14 13 13 12 11 11 10 9 9 9 8 8 7 7 7 8 7 8 8 7 7 6 6 5 5 6 5 5 5 5 5 5 4 3 3 4 4 4 4 5 5
16 15 14 14 13 12 12 12 11 10 10 9 9 9 8 7 8 8 8 9 9 8 7 7 6 6 6 6 6 6 5 5 5 4 3 4 4 5 5 5 5 5
16 16 15 14 13 12 12 13 12 11 11 10 10 10 9 9 8 9 9 10 10 10 9 8 7 7 7 7 7 6 6 6 6 5 4 5 5 6 5 5 5 5
16 16 16 15 14 13 13 13 12 12 11 11 10 10 11 11 10 10 10 10 11 10 10 9 8 8 7 7 7 7 6 6 5 5 5 6 6 6 6 5 5 6
16 16 16 16 16 15 14 13 13 12 12 11 11 11 11 11 11 11 11 11 10 10 10 9 9 8 8 8 7 7 7 6 5 5 6 6 6 7 6 6 6 6
16 15 15 15 16 16 16 15 14 13 12 12 11 12 12 12 12 12 11 11 10 10 10 10 9 9 9 8 8 7 7 7 7 7 7 7 7 7 7 7 6 7
15 15 15 15 16 16 17 16 15 14 13 13 12 12 12 12 12 12 11 11 10 9 9 10 10 10 9 9 8 8 7 7 7 7 7 7 8 7 7 7 7 7
15 14 14 15 15 16 16 16 16 15 14 14 14 13 12 12 12 11 11 11 10 10 10 10 10 10 10 10 9 9 8 8 7 7 7 7 7 7 7 7 7 7
15 14 14 14 14 14 15 16 16 15 14 14 14 14 13 12 12 11 11 11 11 10 10 10 10 10 10 10 10 9 9 8 8 7 8 7 8 8 7 7 8 8
14 14 13 14 14 14 14 14 15 15 14 14 14 14 14 13 12 12 12 11 11 10 10 10 10 10 10 10 10 9 9 9 8 8 8 8 8 8 8 8 8 8
14 14 13 13 13 13 13 13 14 15 14 14 14 14 15 14 13 13 12 12 11 11 10 10 10 10 10 10 10 9 9 9 9 9 9 8 8 8 8 8 9 9
13 13 13 13 12 11 12 13 13 14 14 13 13 14 15 15 14 13 13 12 12 12 11 11 11 11 11 11 11 11 10 10 10 10 10 9 9 9 9 9 9 9
14 13 12 11 11 12 12 12 13 13 14 14 14 14 14 14 14 14 14 13 13 12 12 12 12 12 12 12 12 11 11 11 10 10 10 10 9 9 10 10 10 10
20 19 17 15 13 13 12 13 13 14 14 15 14 14 13 13 14 14 15 14 13 13 13 14 14 13 13 14 14 12 10 10 10 10 10 10 10 10 10 11 11 11
23 23 22 21 20 18 16 15 14 14 14 14 14 14 14 14 14 15 15 15 14 14 14 14 14 14 15 16 16 14 12 11 11 11 11 11 11 11 11 11 11 11
21 20 19 19 20 21 21 19 16 15 15 14 14 14 14 14 14 14 15 15 15 14 14 14 14 13 15 16 15 15 14 12 11 12 12 12 12 12 11 11 11 11
17 16 16 18 18 19 21 21 19 17 16 16 15 14 15 15 15 14 13 13 13 13 13 13 13 13 14 15 15 15 14 13 12 12 12 12 12 12 11 11 11 11
13 13 13 15 17 17 18 19 18 17 17 16 15 15 15 15 15 15 14 13 13 13 13 14 13 13 14 14 14 14 13 13 12 12 13 13 12 12 12 12 12 12
6 9 10 11 14 16 17 17 17 17 17 16 14 14 16 16 15 15 14 14 14 13 14 14 14 14 14 14 14 13 13 13 13 13 13 13 13 13 13 13 13 13
4 3 3 4 8 12 15 17 18 19 19 18 16 15 15 14 14 14 13 14 13 13 14 14 12 12 13 14 14 14 14 13 13 13 13 13 14 14 13 13 13 13
6 5 4 2 2 4 5 8 13 16 17 19 19 18 16 14 13 12 11 11 12 12 13 11 8 9 12 13 15 16 14 12 11 12 13 14 14 14 13 13 12 12
7 7 6 6 5 6 7 5 3 5 10 14 15 14 13 13 13 11 10 10 10 10 10 9 8 10 10 10 12 14 13 12 11 12 13 13 13 13 12 12 11 11
9 8 7 7 6 7 9 10 9 8 6 8 8 7 6 8 9 9 9 9 8 8 9 8 6 6 6 7 9 11 12 11 11 11 12 12 12 12 11 10 9 9
11 10 9 8 7 6 7 8 9 9 9 7 5 4 4 5 7 8 7 7 6 5 5 4 3 3 2 2 5 8 9 9 10 10 11 11 11 11 10 10 9 8
Wind_Direction
203 205 205 206 207 207 206 207 212 213 215 217 216 214 213 210 208 206 204 202 201 203 203 206 214 217 213 215 222 229 240 247 241 231 232 238 239 244 241 236 244 255
205 206 208 209 209 209 210 211 214 216 219 223 222 218 214 210 208 207 207 206 206 205 203 207 210 211 216 218 218 224 228 235 243 237 229 241 248 248 249 241 234 238
208 209 210 212 211 211 212 214 216 219 221 221 221 220 215 209 204 205 208 206 207 208 205 209 208 208 217 217 218 229 225 223 239 243 234 246 258 257 253 248 240 232
210 211 212 215 216 215 215 215 215 218 221 219 217 217 214 209 202 201 204 203 205 207 204 208 210 207 209 210 216 226 225 229 239 242 246 248 252 257 254 251 251 247
210 211 213 216 218 218 216 216 217 218 218 217 214 213 211 209 205 203 202 200 202 204 204 206 208 208 206 204 211 218 224 233 226 219 239 248 248 251 249 245 247 251
209 211 213 216 218 219 217 216 219 220 218 215 213 211 207 205 208 208 204 201 200 202 204 203 202 206 206 203 208 213 224 235 217 206 231 243 247 249 247 245 248 251
211 212 214 217 217 217 217 217 219 220 220 217 212 210 208 205 206 208 206 205 204 202 202 200 196 198 200 200 205 209 219 232 221 215 233 241 243 247 248 249 249 252
213 213 213 217 218 218 218 218 218 217 219 220 216 212 210 209 208 207 205 205 205 203 201 198 193 196 201 200 204 210 218 229 224 219 229 236 238 241 245 248 248 251
216 216 215 215 218 219 220 219 217 215 216 220 220 216 212 212 212 208 202 202 205 202 199 200 197 200 205 203 204 212 218 228 229 223 229 235 236 238 240 243 244 248
218 218 218 218 219 220 220 220 220 216 214 217 221 220 214 211 212 210 203 201 205 203 201 205 203 203 207 206 207 212 217 225 227 226 232 237 239 242 243 242 244 248
220 220 220 220 221 221 220 219 220 219 215 214 218 220 215 209 208 208 205 204 209 208 206 208 209 209 210 211 212 213 215 220 223 224 230 236 240 243 244 245 248 250
218 220 220 221 222 224 223 219 219 220 217 214 215 217 217 212 207 205 205 207 210 210 209 209 212 214 216 217 219 218 218 220 222 224 228 234 239 241 242 244 246 249
213 217 220 221 221 223 226 223 220 219 218 217 216 216 216 215 212 208 206 207 210 212 213 211 213 217 219 223 225 225 224 226 228 228 229 232 236 240 244 244 246 250
207 215 217 219 221 224 226 226 224 221 220 221 219 218 218 218 218 214 210 210 212 215 216 215 215 218 221 224 228 230 230 230 232 234 234 235 236 238 243 246 249 251
214 215 214 214 217 220 223 225 227 225 221 220 219 219 220 220 222 222 218 216 216 216 220 221 221 222 222 221 222 227 231 234 235 237 239 240 241 242 243 245 247 249
224 224 224 225 222 219 218 221 225 226 223 219 216 217 221 223 225 226 225 223 221 220 222 226 228 228 224 219 217 221 232 240 240 241 244 246 248 249 249 249 248 250
226 227 229 232 233 230 224 221 220 221 221 219 215 214 218 220 222 226 229 230 230 229 229 230 232 231 226 225 224 224 229 239 244 244 245 246 248 249 250 252 252 253
224 226 227 229 231 232 231 226 219 216 216 216 215 214 214 217 219 224 229 232 234 235 234 234 234 231 228 230 230 226 226 233 242 245 245 245 246 247 249 252 253 255
220 220 221 224 226 226 225 221 216 215 215 215 215 214 213 215 217 219 223 227 232 236 237 238 238 234 232 234 233 230 230 234 239 244 248 249 249 250 251 253 254 256
217 218 222 224 223 221 218 216 216 217 216 215 216 214 213 216 218 219 219 220 224 230 234 238 239 236 237 239 237 233 233 236 239 242 247 251 252 254 254 255 257 257
206 217 225 224 223 223 221 221 224 225 221 218 218 216 216 220 223 222 222 223 225 228 232 238 241 240 239 240 240 239 239 241 243 245 247 250 252 254 256 258 258 258
123 170 205 224 223 222 220 222 227 232 232 231 229 225 221 221 224 226 224 224 225 227 233 239 239 234 232 235 240 243 244 245 247 248 249 251 252 253 254 257 258 259
98 103 98 96 177 193 200 213 220 225 231 234 234 229 221 213 214 219 223 226 229 230 233 235 230 225 230 239 244 245 243 239 240 244 247 250 252 254 255 257 259 258
87 90 90 88 97 98 89 90 138 193 207 217 221 220 213 206 205 207 212 217 222 225 226 224 225 233 241 247 251 250 243 234 234 240 244 247 250 252 252 253 254 253
79 83 86 85 87 93 92 85 74 75 112 163 184 184 173 174 179 185 197 207 214 228 231 222 220 236 245 245 249 250 243 235 235 240 243 246 250 251 250 248 247 255
74 76 78 77 76 78 86 93 90 80 86 109 126 114 102 117 135 143 158 175 176 170 168 150 108 50 1 274 247 248 242 233 235 243 247 248 250 251 252 251 248 247
Height
859 861 862 863 864 865 866 867 867 868 869 870 871 871 872 873 874 875 876 877 877 878 879 879 880 880 880 880 881 881 882 882 882 882 882 882 882 881 881 881 881 881
858 860 861 862 863 864 865 866 867 868 869 869 870 871 871 872 873 874 875 876 877 877 878 878 879 879 880 880 881 881 882 882 881 881 881 881 881 881 881 881 881 881
857 859 860 861 862 863 864 866 867 867 868 869 869 870 870 871 872 873 874 875 876 876 877 878 878 879 880 880 880 881 881 881 881 881 881 881 881 881 880 880 880 880
855 857 859 860 861 862 863 865 866 867 867 868 868 869 869 870 871 872 873 874 875 875 876 877 877 878 879 879 880 880 880 881 880 880 881 880 880 880 880 880 880 880
854 855 857 858 859 861 862 863 864 865 866 867 867 868 868 869 870 871 872 872 873 874 875 876 876 877 878 878 879 879 880 880 879 880 880 880 880 880 880 880 880 880
852 853 855 857 858 859 861 862 863 864 865 865 866 867 867 868 869 869 870 871 872 873 873 874 875 876 877 877 878 878 878 878 878 879 879 879 879 879 879 879 879 879
850 852 853 855 856 858 859 860 862 863 863 864 864 865 866 867 868 868 869 869 870 871 872 873 874 874 875 876 877 877 877 877 878 878 879 878 879 879 879 879 879 879
849 850 852 853 854 856 857 858 860 861 862 863 863 864 865 865 866 866 867 868 869 869 870 871 872 873 874 874 875 876 876 876 876 877 877 877 877 878 878 878 878 878
847 848 850 851 853 854 855 856 857 858 860 861 862 862 863 864 865 865 866 867 867 868 869 870 870 871 872 873 873 874 874 875 875 875 876 876 876 876 876 877 877 877
845 846 848 849 850 851 852 853 855 856 858 859 860 861 861 862 863 864 865 866 866 867 868 869 869 869 870 871 871 872 873 873 874 874 875 875 875 875 875 875 875 875
844 845 847 848 849 849 850 851 852 853 855 857 858 859 859 861 862 863 864 865 865 866 866 867 868 868 869 869 869 870 870 871 872 872 873 873 873 873 874 874 874 874
842 843 845 846 847 848 848 849 850 851 853 854 855 857 857 858 860 861 862 863 864 864 865 866 866 867 867 868 868 868 868 869 869 870 871 871 871 872 872 872 872 872
840 842 843 844 845 846 847 848 849 850 851 852 853 854 856 856 857 858 859 860 862 862 863 864 864 865 866 867 867 867 867 867 868 868 868 869 869 869 870 870 870 870
838 840 841 842 843 844 846 846 847 848 849 850 851 852 853 854 855 856 857 858 859 860 861 861 862 863 864 865 865 866 866 866 866 866 866 867 867 867 868 868 868 868
836 838 839 840 841 842 844 845 845 847 847 848 849 850 851 852 853 854 855 856 857 858 859 859 860 860 861 862 863 864 865 865 865 865 865 865 865 865 866 866 866 866
834 836 837 838 839 840 841 842 843 845 845 846 847 848 850 851 851 852 852 853 854 855 856 857 858 858 858 859 860 861 862 863 863 863 863 863 864 864 864 864 864 863
832 833 835 836 837 838 839 840 841 842 843 844 845 846 848 849 850 850 851 851 852 853 854 854 855 856 856 857 858 859 860 861 861 861 861 861 862 862 862 862 862 862
829 831 832 834 835 836 837 837 839 840 841 842 843 844 846 847 848 848 849 850 850 851 851 852 852 853 853 855 856 857 858 859 859 859 859 859 859 859 859 859 860 860
828 829 830 831 832 833 834 835 836 838 838 839 840 842 843 844 845 846 847 848 848 849 850 850 850 851 851 853 854 855 856 856 857 858 857 857 857 857 857 857 857 858
827 827 828 829 830 832 833 833 835 836 836 837 838 839 840 841 843 844 845 846 846 847 848 848 849 849 849 851 852 853 854 854 855 855 855 855 855 855 855 855 855 856
826 826 827 828 829 830 831 832 834 835 836 837 837 837 838 839 840 842 842 843 844 845 846 846 847 847 847 849 850 850 851 852 852 853 853 853 853 853 854 854 854 854
826 826 827 827 827 828 829 830 832 834 835 836 836 837 837 837 838 840 840 841 842 843 844 844 845 845 845 846 847 848 849 849 850 851 851 851 851 851 851 851 852 852
826 826 826 826 826 827 828 829 830 832 833 835 835 836 836 836 837 838 839 840 840 841 842 842 842 842 843 844 845 846 846 847 848 848 848 848 848 849 849 849 850 850
827 827 827 827 828 828 829 830 830 831 831 832 834 834 835 835 835 836 837 838 839 840 840 841 841 841 842 843 843 844 845 845 846 845 845 845 846 846 846 846 847 847
828 828 828 829 829 829 830 830 831 831 831 832 833 833 834 834 834 835 836 837 838 839 839 841 841 841 841 841 842 843 843 843 843 843 843 843 843 843 843 843 844 844
829 829 830 830 830 830 830 831 832 832 832 833 834 834 834 834 834 835 837 838 838 838 839 839 840 841 842 842 842 842 841 841 842 842 841 841 841 841 842 841 842 842